Find Starlink 37363

NORAD ID: 69158 Int'l Des: 2026-111 Owner: SPXS Country: US Constellation: starlink operational
LEOCIRCULAR

現在のビュー

3D地球を読み込み中...

About Starlink 37363

Starlink 37363 (NORAD 69158) is a starlink constellation satellite (v2 mini) launched May 21, 2026 by SPXS of US. It operates in LEO, CIRCULAR orbit with a mass of 575.00 kg.

次回通過

Passes for default location (London). Set your location on the main map for personalized predictions.

高度履歴

Loading altitude history...

軌道要素

1 69158U 26111L 26235.59899754 .00003850 00000-0 12506-3 0 9997
2 69158 53.1572 196.2581 0001480 85.6657 274.4515 15.34394763 14611
Epoch: Aug 23, 2026 • Age: 11 hours

現在のステータス

高度 476.3 km
遠地点 / 近地点 N/A
速度 7.63 km/s
衛星直下点 -39.27°S, 167.91°E
打ち上げ日 May 21, 2026
運用期間 0.2 years
タイプ internet

技術仕様

分類 Payload
質量 575.00 kg
乾燥質量 530.00 kg
総質量 575.00 kg
長さ 0.30 m
直径 4.10 m
スパン 29.00 m
形状 Box + pan
製造者 SPXS
バスタイプ Starlink V2MO
フェーズステータス In Orbit
所有者/国 SPXS/US

Most Searched